Location: Fort Worth, Tx
(32.7431°N, 97.3695°W)
Time: 13:32:38
(UTC-04:00)

ISS - Visible Passes

Search period start: 21 March 2019 00:00
Search period end: 31 March 2019 00:00
Orbit: 406 x 411 km, 51.6° (Epoch: 21 March)

Date Brightness Start Highest point End Pass type
(mag) Time Alt. Az. Time Alt. Az. Time Alt. Az.
21 Mar -3.7 21:33:23 10° SW 21:36:40 78° NW 21:39:58 10° NE visible
22 Mar -0.9 22:20:17 10° WNW 22:22:22 16° NNW 22:24:28 10° N visible
23 Mar -1.7 21:28:17 10° W 21:31:07 26° NW 21:33:59 10° NNE visible
25 Mar -0.8 21:24:15 10° WNW 21:25:43 12° NNW 21:27:11 10° N visible
